Tracking 22881 objects as of 19-Apr-2021
HD Live streaming from Space Station
objects crossing your sky now

STARLINK 1060

Track STARLINK 1060 now!
10-day predictions
STARLINK 1060 is classified as:


NORAD ID: 44765
Int'l Code: 2019-074BE
Perigee: 553.1 km
Apogee: 555.6 km
Inclination: 53.1 °
Period: 95.6 minutes
Semi major axis: 6925 km
RCS: Unknown
Launch date: November 11, 2019
Source: United States (US)
Launch site: AIR FORCE EASTERN TEST RANGE (AFETR)
aabbcc
Your satellite tracking list
Your tracking list is empty




NASA's NSSDC Master Catalog

Two Line Element Set (TLE):
1 44765U 19074BE  21108.88394538  .00001149  00000-0  96033-4 0  9997
2 44765  53.0560 303.4160 0001753  98.6877 261.4311 15.06396403 79309
Source of the keplerian elements: AFSPC